Theta_e
320 321 322 321 322 313 317 318 315 317 316 315 316 315 313 312 316 324 320 322 330 334 338 336 336 337 335 338 339 339 338 337 337 339 339 338 340 338 337 337 337 336 335 331 329 329 335 332 332
320 321 322 316 318 315 314 314 316 316 315 313 314 312 310 313 312 313 315 320 327 329 331 331 329 329 335 338 339 339 338 337 338 338 339 338 338 339 337 337 336 336 336 337 333 330 334 333 330
318 320 318 316 310 315 314 314 314 314 314 315 312 309 311 311 310 312 311 312 317 318 320 323 328 331 329 330 338 338 338 338 337 336 338 337 338 338 335 336 336 336 335 336 337 337 333 330 330
317 317 311 312 315 314 313 313 313 314 315 311 309 310 309 309 310 309 308 309 310 310 313 314 315 320 327 330 330 332 336 337 337 335 335 336 338 338 335 334 334 334 334 332 338 338 339 334 327
316 310 315 316 314 314 312 313 313 312 314 311 311 311 309 308 307 306 306 304 304 304 307 309 309 314 315 317 320 325 328 330 331 334 336 335 334 333 334 334 333 333 332 330 336 337 336 339 336
314 309 315 314 314 314 313 313 312 312 310 310 309 307 308 306 305 305 303 302 302 302 302 303 304 304 308 312 314 316 319 322 326 328 330 331 332 334 333 333 333 332 331 329 330 335 336 334 335
314 312 317 314 313 315 314 313 312 309 311 311 308 308 306 304 304 303 302 302 301 301 301 301 301 302 302 301 301 303 310 316 318 320 323 327 331 331 330 332 331 331 330 329 330 331 333 332 331
311 311 317 314 314 316 314 313 309 310 311 308 307 306 305 303 302 302 302 302 301 301 300 299 299 299 299 298 298 298 299 300 304 314 320 320 323 328 331 329 330 331 331 329 328 329 330 330 330
313 316 317 315 315 315 313 314 308 304 304 303 302 302 302 301 301 301 300 299 299 300 299 299 298 297 297 296 296 296 296 296 299 302 305 311 322 322 324 328 329 326 329 331 329 327 327 328 328
314 315 317 314 313 314 313 312 308 306 304 303 301 300 299 300 300 299 298 298 297 298 299 299 298 297 296 296 296 295 295 295 297 302 303 307 313 318 321 323 326 329 327 327 330 328 327 326 326
313 313 315 314 313 312 313 311 309 305 307 303 301 298 297 298 298 298 297 297 296 297 296 296 297 296 296 296 296 295 295 295 296 298 302 304 303 314 316 321 324 325 327 329 327 329 328 327 326
315 313 315 313 312 312 312 310 307 306 305 300 298 297 296 295 296 296 296 296 295 295 294 294 294 294 294 294 294 294 294 294 295 296 295 302 306 303 300 304 306 319 326 326 327 329 329 328 327
315 314 313 313 312 311 310 310 306 302 300 298 297 296 295 295 296 296 296 295 295 294 294 293 293 293 293 294 293 293 294 294 294 295 295 295 303 301 303 301 299 303 309 325 326 328 329 329 327
314 314 311 312 313 311 309 307 306 302 299 297 297 296 295 295 295 295 295 294 294 294 294 293 293 293 293 293 293 293 293 293 293 294 295 295 296 296 301 301 299 308 308 307 315 326 327 328 327
312 313 311 312 311 312 307 308 308 302 298 298 296 295 295 295 294 295 294 293 292 293 293 292 293 293 292 293 292 292 292 292 293 294 294 294 294 295 296 300 299 303 301 300 300 311 325 326 327
313 311 313 313 311 311 308 310 306 300 299 298 295 293 294 293 293 294 294 292 292 292 292 292 292 292 291 292 291 291 291 292 293 293 293 293 293 294 296 299 297 300 298 300 300 301 312 324 325
308 313 311 309 309 311 308 308 304 299 299 297 293 292 291 291 292 293 293 292 291 291 292 292 291 291 291 290 290 291 291 291 292 291 291 291 292 292 295 296 296 299 297 299 300 299 303 316 324
313 309 307 308 310 310 309 309 303 301 297 296 293 292 290 291 292 293 293 292 291 291 292 291 291 291 290 290 290 290 290 289 290 290 290 290 290 290 293 295 297 297 297 299 299 299 301 304 313
309 309 308 308 309 309 308 309 303 303 296 294 292 290 290 290 292 293 292 292 291 291 291 290 290 291 290 289 289 288 288 288 287 287 286 287 287 289 291 292 294 296 299 299 298 300 302 302 303
309 310 309 308 307 307 307 307 306 303 299 297 294 290 290 290 290 291 292 292 291 291 290 290 290 290 289 288 287 287 286 285 285 285 284 284 284 285 285 287 290 294 296 298 299 298 301 302 302
308 310 308 308 306 304 303 304 306 301 300 294 293 292 290 290 290 290 291 291 291 290 290 290 290 289 288 287 286 285 284 284 284 283 283 283 282 282 282 283 285 289 295 298 299 298 298 301 301
308 306 307 307 305 305 302 305 304 298 299 295 294 291 289 289 290 290 291 291 291 290 290 289 288 288 287 286 285 284 283 282 282 282 281 281 280 280 281 283 286 289 293 296 297 297 297 297 301
307 305 305 305 304 302 302 301 302 297 298 296 294 291 288 289 289 289 291 291 290 290 289 289 287 287 286 285 284 283 282 281 281 280 280 279 279 279 280 282 284 287 288 293 296 296 296 296 299
306 305 303 302 300 302 302 301 300 296 299 298 295 290 289 288 288 289 291 290 290 289 289 287 286 286 285 284 283 282 281 279 279 279 278 278 278 279 279 279 279 282 285 287 295 297 297 296 296
307 303 308 307 304 309 299 300 306 300 297 297 296 290 288 288 287 288 288 288 289 288 288 286 285 285 284 282 281 280 279 279 278 278 278 277 277 277 276 276 279 280 282 284 287 296 296 296 295
306 303 309 309 308 314 299 304 304 295 291 295 294 290 288 287 287 288 288 288 288 287 286 285 284 283 282 281 280 279 278 278 277 277 277 276 276 275 275 277 277 278 279 285 286 293 296 294 294
304 302 301 302 286 295 301 300 299 292 290 289 289 288 287 287 287 287 287 288 287 286 286 284 283 282 281 279 278 277 277 276 277 276 275 275 275 274 276 274 275 277 280 280 284 286 295 294 294
301 300 303 301 307 305 306 305 307 293 291 289 288 288 287 287 287 287 287 287 287 286 285 283 282 280 279 278 277 276 275 275 276 275 275 274 274 273 273 273 274 274 275 277 280 285 292 294 294
297 300 298 300 308 310 310 314 298 296 294 290 289 288 287 287 287 286 286 286 286 285 283 281 280 278 277 276 275 274 274 274 274 274 273 273 273 273 272 272 272 273 275 276 278 282 285 293 293
300 302 302 304 306 303 308 311 300 296 294 291 290 288 286 287 286 285 285 285 284 283 281 279 278 276 275 274 273 272 273 273 273 273 273 273 272 272 272 271 272 272 272 274 277 280 283 293 293
Wind_Speed
3 1 2 3 4 5 1 2 2 3 2 2 1 10 10 7 4 6 9 23 22 18 15 16 16 12 6 6 7 8 9 10 10 10 10 10 10 9 10 12 13 14 14 14 15 14 14 15 15
4 2 3 2 5 4 3 3 3 3 5 6 7 6 10 5 7 6 11 22 21 21 22 23 21 16 9 6 7 9 11 12 13 13 13 14 14 13 13 12 14 15 16 15 15 14 15 16 16
3 1 3 4 4 4 4 3 3 2 1 3 6 7 5 7 6 5 15 24 23 25 23 20 17 17 19 11 6 9 11 13 14 15 17 17 16 16 17 16 16 17 17 16 16 16 15 17 18
2 4 4 4 3 1 7 5 4 5 2 10 11 9 6 18 8 9 23 25 27 30 27 26 24 20 17 16 11 11 14 14 15 17 17 19 19 20 19 19 19 19 20 19 17 18 18 17 18
3 3 4 4 2 1 3 2 4 3 2 6 3 5 6 8 18 23 27 28 31 30 30 30 29 27 26 24 21 19 17 18 19 19 19 20 22 23 23 22 22 22 21 22 21 20 21 21 19
3 3 5 2 3 2 3 0 5 4 3 3 7 7 4 9 21 22 24 28 29 30 30 31 31 30 28 28 27 25 23 22 22 22 21 22 23 24 25 25 24 23 23 23 24 24 23 21 22
5 3 3 2 6 2 2 0 5 4 3 5 4 5 5 8 15 21 24 25 26 29 30 30 31 30 29 30 30 27 25 23 24 24 24 25 22 24 27 27 27 25 25 25 26 26 25 24 24
4 4 2 1 4 2 3 3 5 6 2 1 2 7 5 1 17 20 22 23 25 27 29 30 30 30 30 31 31 29 28 26 26 26 27 28 27 24 24 27 29 28 28 29 29 28 29 27 26
3 4 1 2 3 2 2 3 4 4 7 5 4 4 9 13 18 22 24 25 25 25 26 28 28 30 30 31 32 32 31 31 28 28 30 31 30 30 29 27 28 30 31 33 32 31 29 29 28
4 3 2 1 3 3 0 3 8 5 4 5 5 9 17 20 21 22 20 19 22 23 24 25 26 29 29 32 33 35 35 34 31 32 34 31 31 31 29 29 28 31 34 36 36 34 33 32 31
1 3 2 1 3 4 4 1 2 13 2 7 10 8 8 17 16 15 13 14 16 18 19 19 19 25 28 31 33 35 35 36 34 34 35 37 36 32 32 32 32 33 32 37 40 38 37 37 35
3 2 2 6 3 4 5 4 4 1 3 11 11 13 9 10 10 11 11 11 14 15 18 20 22 27 29 31 34 36 37 38 33 34 34 33 32 38 41 37 37 33 34 36 38 44 44 40 37
1 4 3 0 5 6 6 1 7 4 7 10 13 9 9 9 10 9 9 9 11 13 17 21 22 26 28 30 34 34 35 37 37 36 37 34 33 39 35 38 41 37 36 33 36 38 46 45 40
2 3 7 6 1 5 7 3 2 7 7 9 9 9 8 10 9 8 8 10 15 16 15 20 23 26 28 30 33 33 33 36 36 36 38 37 34 36 36 39 42 31 34 40 35 35 39 45 42
3 5 6 4 4 5 9 1 8 9 10 11 10 9 8 8 8 8 8 12 16 16 14 22 24 26 29 29 32 32 34 35 36 36 38 40 38 38 38 39 33 35 38 41 43 37 37 38 35
2 2 3 3 3 1 5 9 4 10 14 10 9 7 8 7 9 10 10 13 17 16 16 20 24 27 31 31 33 32 35 38 39 39 41 42 42 40 36 37 35 36 40 37 36 37 36 35 36
5 3 4 7 8 2 6 6 5 8 11 10 9 8 7 6 7 10 10 13 17 17 16 20 24 28 32 32 34 35 33 33 34 36 37 41 44 42 38 39 38 37 39 39 31 36 36 31 31
4 5 5 7 3 4 7 13 8 13 9 12 9 8 7 7 7 13 10 11 16 17 15 22 24 28 32 30 28 28 29 30 30 31 34 38 40 40 40 38 39 40 37 36 32 29 33 34 28
3 5 7 6 6 5 10 16 13 17 8 10 10 9 9 8 9 12 8 9 14 16 16 24 27 27 27 27 27 27 28 31 31 32 35 37 36 36 36 35 36 35 34 35 30 28 25 28 29
5 6 8 9 5 3 9 10 9 16 22 21 17 10 10 6 7 9 6 7 13 13 15 25 23 20 26 25 26 25 27 29 29 30 35 37 37 36 39 39 39 36 35 33 29 26 24 28 25
4 5 6 8 4 5 8 7 18 3 12 8 8 10 7 10 8 6 5 4 9 13 15 21 23 23 24 30 29 29 29 30 31 33 35 34 36 39 39 42 42 41 37 33 32 27 22 22 33
6 3 5 4 4 3 4 9 3 6 15 13 14 10 9 9 7 6 5 1 6 10 15 17 25 21 24 30 27 26 26 30 30 33 37 39 37 38 36 38 38 36 32 36 35 31 27 22 26
8 0 4 3 5 3 6 5 5 3 8 14 17 13 9 9 8 8 6 1 6 8 12 18 23 19 26 28 28 28 25 27 31 33 36 35 36 32 35 33 36 33 36 35 36 33 28 17 30
1 3 4 3 2 2 7 9 5 6 10 8 15 12 11 9 8 7 5 2 6 10 8 19 18 24 27 31 30 27 28 29 31 35 35 35 36 32 31 37 38 35 33 34 32 33 30 28 28
3 5 4 5 2 7 5 3 16 8 7 11 23 17 11 9 8 6 5 5 6 9 10 20 21 23 30 30 28 27 29 30 29 30 32 39 38 34 36 37 33 33 34 36 39 34 29 23 27
5 6 5 6 4 15 2 8 6 4 7 7 11 14 9 9 7 7 8 7 8 9 12 22 25 28 28 28 29 29 30 28 29 30 34 37 35 39 37 34 35 36 37 33 36 35 30 19 21
4 5 2 1 2 3 5 7 6 4 3 6 11 10 9 9 8 8 8 8 10 9 16 25 28 30 29 31 32 31 27 28 31 32 35 35 37 38 34 39 36 34 32 33 32 37 30 23 18
4 4 3 1 3 6 7 10 12 7 10 8 11 13 10 8 8 7 6 9 8 11 21 23 23 26 29 29 27 28 29 30 31 32 36 37 38 36 37 36 34 38 37 38 34 34 29 24 21
1 3 3 2 5 4 4 16 7 15 17 19 17 15 12 10 8 7 8 8 6 11 15 18 21 26 27 28 30 30 31 30 32 32 36 36 36 35 36 35 34 31 30 31 33 33 35 25 20
2 10 12 5 6 7 2 16 2 9 12 18 17 14 9 8 8 7 6 5 9 11 16 19 22 24 27 30 30 31 31 33 33 33 35 35 38 35 35 35 33 33 32 31 31 31 33 26 23
Wind_Direction
58 9 14 52 57 66 9 31 53 113 68 271 87 91 95 36 38 128 25 20 33 43 38 32 26 20 350 296 277 271 264 264 265 263 264 263 265 273 285 293 293 290 287 276 273 274 275 270 263
40 56 68 83 85 71 285 299 125 164 177 126 83 62 39 57 21 73 20 28 48 48 40 27 18 16 359 324 295 287 287 283 283 273 269 266 265 262 261 269 282 284 286 279 271 268 269 268 264
12 59 85 98 108 151 174 227 172 172 1 109 108 60 40 330 0 72 34 45 48 46 39 31 28 21 19 359 319 318 300 287 281 279 280 274 264 263 267 267 264 274 279 271 271 268 265 265 263
355 24 33 80 117 125 166 200 160 133 332 77 111 68 82 16 59 66 53 53 53 47 45 41 36 30 22 15 11 327 324 314 294 288 280 276 273 272 270 270 269 271 273 272 260 264 266 266 264
55 61 58 88 98 86 274 202 67 78 77 52 100 121 97 23 71 64 57 54 52 49 48 45 41 40 36 30 18 2 348 342 334 311 292 282 280 278 275 270 272 273 270 269 263 257 260 259 259
38 94 57 127 117 212 274 351 106 76 57 98 73 95 86 61 65 63 58 54 50 47 44 43 41 42 41 35 26 16 7 358 349 335 327 310 291 282 278 275 273 271 271 266 262 265 257 257 257
106 76 167 150 157 185 193 258 83 82 42 24 163 85 115 43 70 65 61 53 46 43 39 36 33 30 28 27 23 19 13 3 354 347 333 327 309 296 284 278 276 273 270 266 261 262 261 260 254
100 87 57 66 171 182 336 71 105 72 75 26 60 155 144 123 72 70 60 52 46 38 33 29 26 21 17 13 10 6 6 3 357 351 348 341 324 314 301 287 276 275 272 270 265 260 261 260 258
104 59 29 334 143 159 342 109 35 2 85 50 23 89 117 89 73 60 49 41 36 33 27 21 19 16 14 13 7 4 2 359 356 353 346 343 339 329 319 307 288 280 276 274 267 263 259 259 261
81 101 207 349 137 154 307 133 146 94 70 66 86 85 92 82 74 66 53 39 30 27 22 18 16 13 12 10 8 6 4 1 358 354 351 347 338 332 327 315 303 284 277 273 271 263 259 256 256
140 167 191 106 145 175 158 84 73 130 186 195 161 143 112 92 82 82 69 54 35 29 25 19 13 11 12 10 7 5 2 1 360 352 347 345 343 341 335 331 318 304 292 274 270 264 255 254 252
349 301 207 176 200 152 162 133 64 8 144 135 149 150 133 104 95 87 71 55 39 31 18 16 17 14 14 11 6 359 355 353 351 348 349 341 341 332 331 331 323 321 298 291 282 267 257 253 253
166 316 333 99 176 133 113 167 147 122 133 128 138 131 124 121 113 103 84 73 46 26 22 23 14 10 9 7 3 359 353 347 342 338 341 344 332 330 325 327 326 324 315 295 281 269 258 249 250
312 293 287 290 208 169 125 172 78 218 169 143 137 142 143 133 133 114 84 67 39 20 20 17 12 13 12 8 2 356 351 343 339 334 333 334 330 327 318 320 325 321 319 311 312 265 256 246 244
321 326 323 245 195 208 112 326 229 162 169 164 165 163 155 146 121 105 94 68 38 24 16 16 11 12 11 9 2 355 350 345 339 333 327 327 326 324 317 313 319 310 317 321 316 318 252 247 239
5 56 349 280 166 198 131 257 238 174 166 178 172 169 163 171 147 130 106 70 43 29 18 14 9 8 10 9 360 353 349 345 343 337 331 327 323 320 309 302 305 304 311 312 316 305 303 241 238
5 245 233 310 207 136 185 264 223 182 181 183 191 184 172 162 161 138 96 59 41 27 20 15 11 10 8 3 357 352 344 341 336 329 324 322 320 318 304 296 298 296 303 302 309 313 286 283 235
253 284 274 241 265 199 248 261 190 198 195 196 193 192 180 173 181 155 124 65 37 25 22 13 9 9 4 360 354 345 338 334 331 326 320 318 316 315 308 300 296 295 288 292 300 307 307 286 294
209 236 230 254 255 223 233 246 205 200 204 204 202 196 185 189 184 161 125 60 28 25 18 12 9 6 357 356 350 343 337 332 326 324 322 318 316 313 316 315 303 295 278 284 290 300 297 291 283
232 261 265 285 240 210 269 248 227 192 211 206 192 192 187 191 181 173 137 53 26 20 14 10 5 356 351 351 345 338 332 325 322 323 319 318 316 313 311 303 303 294 283 279 275 289 295 291 281
231 213 252 241 337 290 284 248 242 220 223 193 193 193 183 182 184 178 157 51 15 12 7 4 354 344 346 345 340 336 330 331 326 322 319 315 313 310 307 300 296 291 289 270 268 278 281 289 292
276 227 256 281 355 260 348 294 258 193 223 204 190 196 185 188 181 160 153 19 5 358 351 353 346 340 340 341 336 330 331 321 315 312 315 312 312 307 304 302 295 296 301 270 267 277 274 279 281
237 188 263 265 259 349 230 255 240 142 244 211 197 192 189 192 174 166 165 298 339 339 336 343 342 332 336 336 335 327 313 307 308 310 308 307 311 304 303 302 304 300 298 296 261 258 269 253 265
32 333 299 46 99 255 233 196 221 192 218 196 202 187 187 183 176 169 181 234 298 320 315 335 329 334 335 340 331 315 305 309 312 309 306 311 311 302 300 297 296 298 299 297 274 252 258 275 277
81 56 312 334 344 237 180 232 258 234 225 196 196 181 183 178 169 185 205 238 276 299 307 332 332 333 340 333 322 312 308 306 300 302 304 308 305 301 302 297 295 299 299 293 294 265 249 256 269
177 177 168 262 251 293 350 245 252 289 306 231 174 164 170 174 178 192 212 242 273 271 313 332 342 336 331 324 318 314 304 297 296 300 301 297 292 297 297 293 295 295 295 291 289 284 246 251 269
179 187 152 192 127 7 238 277 275 82 48 103 146 161 182 185 189 203 219 238 266 272 324 343 342 332 325 321 317 307 300 300 296 300 301 294 290 293 294 295 291 292 291 300 295 292 256 256 273
167 154 69 8 288 274 263 274 248 199 207 186 183 192 196 194 198 209 224 253 255 320 336 336 331 322 321 316 308 306 304 302 299 301 299 295 291 290 293 293 292 292 292 292 292 285 278 253 270
158 214 199 200 162 228 295 283 207 192 203 192 201 195 190 193 194 210 228 261 262 303 311 319 327 325 318 316 314 311 304 304 303 300 298 294 294 291 291 292 291 290 292 291 292 290 293 252 258
244 208 186 191 223 235 219 259 168 206 196 195 202 192 187 184 191 208 221 227 266 285 318 326 329 324 322 317 311 309 308 310 307 302 299 297 296 293 291 292 289 289 287 284 282 284 280 261 238